Date String (YYYY-MM-DD hh:mm:ss) UTC,Instrument flags,absolute air pressure of the measurement (hPa),sample flow rate (lpm),inlet stack bypass flow (lpm),air temperature of the measurement (°C),ambient temperature measured by the external sensor (°C),aerosol sample conditioner tube jacket temperature (°C),OPC LED temperature (°C),internal box temperature (°C),relative humidity of the measurement (%),span deviation,mass concentration of particles derived from Lorenz-Mie calculation of OPC scattering (μg/m³),mass concentration of particles derived from Lorenz-Mie calculation of OPC scattering (μg/m³),mass concentration of particles derived from Lorenz-Mie calculation of OPC scattering (μg/m³)
DateTimeUTC,F1_M11,P_M11,Q1_M11,Q2_M11,T1_M11,T2_M11,T3_M11,T4_M11,T5_M11,U1_M11,ZSPAN_M11,X0_M11,X2_M11,X1_M11
2023-12-31 10:00:00,SystemResetWarning,0829.5,5.00,000.00,022.4,021.5,000.0,030.8,023.7,10.8,0000.0,0008.53,0003.95,0003.51
2023-12-31 10:01:00,SystemResetWarning,0829.5,5.00,000.00,022.4,021.5,000.0,030.8,023.7,10.8,0000.0,0008.40,0003.92,0003.51
2023-12-31 10:02:00,SystemResetWarning,0829.6,5.00,000.00,022.4,021.5,000.0,030.8,023.7,10.8,0000.0,0008.52,0003.89,0003.49
2023-12-31 10:03:00,SystemResetWarning,0829.6,5.00,000.00,022.4,021.5,000.0,030.8,023.7,10.8,0000.0,0008.06,0003.87,0003.48
2023-12-31 10:04:00,SystemResetWarning,0829.6,5.00,000.00,022.4,021.5,000.0,030.8,023.7,10.8,0000.0,0007.80,0003.85,0003.48
2023-12-31 10:05:00,SystemResetWarning,0829.6,5.00,000.00,022.4,021.5,000.0,030.8,023.7,10.8,0000.0,0007.64,0003.85,0003.48
2023-12-31 10:06:00,SystemResetWarning,0829.6,5.00,000.00,022.4,021.5,000.0,030.8,023.7,10.8,0000.0,0007.72,0003.82,0003.46
2023-12-31 10:07:00,SystemResetWarning,0829.6,5.01,000.00,022.4,021.5,000.0,030.8,023.7,10.8,0000.0,0007.57,0003.81,0003.46
2023-12-31 10:08:00,SystemResetWarning,0829.6,5.00,000.00,022.4,021.5,000.0,030.7,023.8,10.8,0000.0,0007.58,0003.82,0003.46
2023-12-31 10:09:00,SystemResetWarning,0829.5,4.99,000.00,022.4,021.5,000.0,030.7,023.7,10.8,0000.0,0007.47,0003.77,0003.44
2023-12-31 10:10:00,SystemResetWarning,0829.6,4.98,000.00,022.4,021.5,000.0,030.7,023.7,10.8,0000.0,0007.59,0003.77,0003.43
2023-12-31 10:11:00,SystemResetWarning,0829.6,5.00,000.00,022.3,021.5,000.0,030.7,023.7,10.8,0000.0,0007.75,0003.74,0003.41
2023-12-31 10:12:00,SystemResetWarning,0829.6,5.00,000.00,022.3,021.5,000.0,030.7,023.7,10.8,0000.0,0007.64,0003.73,0003.40
2023-12-31 10:13:00,SystemResetWarning,0829.6,5.01,000.00,022.3,021.5,000.0,030.7,023.7,10.8,0000.0,0007.54,0003.76,0003.41
2023-12-31 10:14:00,SystemResetWarning,0829.6,5.00,000.00,022.3,021.5,000.0,030.7,023.7,10.8,0000.0,0007.72,0003.77,0003.41
2023-12-31 10:15:00,SystemResetWarning,0829.6,4.98,000.00,022.3,021.5,000.0,030.7,023.7,10.9,0000.0,0007.77,0003.79,0003.42
2023-12-31 10:16:00,SystemResetWarning,0829.6,5.00,000.00,022.3,021.5,000.0,030.7,023.7,10.9,0000.0,0007.94,0003.81,0003.43
2023-12-31 10:17:00,SystemResetWarning,0829.6,5.01,000.00,022.3,021.5,000.0,030.7,023.7,10.9,0000.0,0008.08,0003.83,0003.43
2023-12-31 10:18:00,SystemResetWarning,0829.6,5.01,000.00,022.3,021.5,000.0,030.7,023.7,11.0,0000.0,0008.06,0003.82,0003.43
2023-12-31 10:19:00,SystemResetWarning,0829.6,5.01,000.00,022.3,021.5,000.0,030.7,023.7,11.1,0000.0,0008.18,0003.82,0003.42
2023-12-31 10:20:00,SystemResetWarning,0829.5,5.00,000.00,022.3,021.5,000.0,030.7,023.7,11.1,0000.0,0008.34,0003.88,0003.46
2023-12-31 10:21:00,SystemResetWarning,0829.5,5.00,000.00,022.3,021.5,000.0,030.7,023.7,11.1,0000.0,0008.45,0003.95,0003.50
2023-12-31 10:22:00,SystemResetWarning,0829.5,4.99,000.00,022.3,021.5,000.0,030.7,023.7,11.1,0000.0,0009.15,0004.04,0003.54
2023-12-31 10:23:00,SystemResetWarning,0829.5,4.99,000.00,022.3,021.5,000.0,030.7,023.7,11.1,0000.0,0009.74,0004.08,0003.57
2023-12-31 10:24:00,SystemResetWarning,0829.5,5.00,000.00,022.3,021.5,000.0,030.7,023.7,11.1,0000.0,0009.80,0004.10,0003.60
2023-12-31 10:25:00,SystemResetWarning,0829.5,5.00,000.00,022.3,021.5,000.0,030.7,023.7,11.2,0000.0,0009.75,0004.15,0003.62
2023-12-31 10:26:00,SystemResetWarning,0829.5,5.01,000.00,022.3,021.5,000.0,030.7,023.7,11.2,0000.0,0009.70,0004.15,0003.63
2023-12-31 10:27:00,SystemResetWarning,0829.4,5.00,000.00,022.3,021.5,000.0,030.7,023.7,11.2,0000.0,0009.61,0004.19,0003.66
2023-12-31 10:28:00,SystemResetWarning,0829.4,5.00,000.00,022.3,021.5,000.0,030.6,023.7,11.2,0000.0,0009.49,0004.26,0003.69
2023-12-31 10:29:00,SystemResetWarning,0829.4,5.00,000.00,022.3,021.5,000.0,030.6,023.7,11.1,0000.0,0010.09,0004.31,0003.73
2023-12-31 10:30:00,SystemResetWarning,0829.4,5.01,000.00,022.3,021.5,000.0,030.6,023.7,11.1,0000.0,0010.44,0004.37,0003.78
2023-12-31 10:31:00,SystemResetWarning,0829.4,5.00,000.00,022.3,021.5,000.0,030.6,023.7,11.2,0000.0,0010.52,0004.40,0003.82
2023-12-31 10:32:00,SystemResetWarning,0829.4,5.00,000.00,022.3,021.5,000.0,030.6,023.7,11.2,0000.0,0010.57,0004.43,0003.84
2023-12-31 10:33:00,SystemResetWarning,0829.4,4.99,000.00,022.3,021.5,000.0,030.6,023.7,11.2,0000.0,0009.93,0004.44,0003.87
2023-12-31 10:34:00,SystemResetWarning,0829.4,5.00,000.00,022.3,021.5,000.0,030.6,023.7,11.2,0000.0,0009.68,0004.47,0003.89
2023-12-31 10:35:00,SystemResetWarning,0829.4,5.00,000.00,022.3,021.5,000.0,030.6,023.7,11.2,0000.0,0009.99,0004.53,0003.91
2023-12-31 10:36:00,SystemResetWarning,0829.4,5.01,000.00,022.3,021.5,000.0,030.6,023.7,11.2,0000.0,0010.06,0004.54,0003.93
2023-12-31 10:37:00,SystemResetWarning,0829.4,5.01,000.00,022.3,021.5,000.0,030.6,023.7,11.2,0000.0,0010.66,0004.61,0003.95
2023-12-31 10:38:00,SystemResetWarning,0829.4,5.00,000.00,022.3,021.5,000.0,030.6,023.7,11.2,0000.0,0011.13,0004.64,0003.97
2023-12-31 10:39:00,SystemResetWarning,0829.4,4.99,000.00,022.3,021.4,000.0,030.6,023.7,11.2,0000.0,0011.72,0004.68,0003.99
2023-12-31 10:40:00,SystemResetWarning,0829.4,4.99,000.00,022.3,021.4,000.0,030.6,023.7,11.2,0000.0,0011.32,0004.74,0004.01
2023-12-31 10:41:00,SystemResetWarning,0829.4,5.00,000.00,022.3,021.4,000.0,030.6,023.6,11.2,0000.0,0011.06,0004.77,0004.01
2023-12-31 10:42:00,SystemResetWarning,0829.4,5.01,000.00,022.3,021.4,000.0,030.6,023.6,11.2,0000.0,0011.06,0004.77,0004.01
2023-12-31 10:43:00,SystemResetWarning,0829.3,5.00,000.00,022.2,021.3,000.0,030.6,023.6,11.2,0000.0,0011.00,0004.75,0004.02
2023-12-31 10:44:00,SystemResetWarning,0829.3,5.01,000.00,022.2,021.3,000.0,030.6,023.6,11.2,0000.0,0010.69,0004.77,0004.03
2023-12-31 10:45:00,SystemResetWarning,0829.3,5.00,000.00,022.2,021.3,000.0,030.6,023.6,11.2,0000.0,0010.61,0004.80,0004.06
2023-12-31 10:46:00,SystemResetWarning,0829.3,5.00,000.00,022.2,021.3,000.0,030.6,023.6,11.2,0000.0,0010.33,0004.76,0004.06
2023-12-31 10:47:00,SystemResetWarning,0829.3,5.00,000.00,022.2,021.3,000.0,030.6,023.6,11.1,0000.0,0010.20,0004.76,0004.06
2023-12-31 10:48:00,SystemResetWarning,0829.3,5.00,000.00,022.2,021.3,000.0,030.6,023.6,11.1,0000.0,0009.99,0004.77,0004.08
2023-12-31 10:49:00,SystemResetWarning,0829.3,5.00,000.00,022.2,021.3,000.0,030.6,023.6,11.1,0000.0,0009.79,0004.75,0004.07
2023-12-31 10:50:00,SystemResetWarning,0829.3,5.00,000.00,022.2,021.3,000.0,030.6,023.6,11.0,0000.0,0010.21,0004.77,0004.07
2023-12-31 10:51:00,SystemResetWarning,0829.3,5.00,000.00,022.2,021.3,000.0,030.6,023.6,11.0,0000.0,0010.60,0004.73,0004.07
2023-12-31 10:52:00,SystemResetWarning,0829.3,5.00,000.00,022.2,021.3,000.0,030.6,023.6,11.0,0000.0,0010.63,0004.73,0004.08
2023-12-31 10:53:00,SystemResetWarning,0829.3,5.01,000.00,022.2,021.3,000.0,030.6,023.6,11.0,0000.0,0011.15,0004.73,0004.10
2023-12-31 10:54:00,SystemResetWarning,0829.3,5.00,000.00,022.2,021.3,000.0,030.6,023.5,11.0,0000.0,0011.33,0004.78,0004.11
2023-12-31 10:55:00,SystemResetWarning,0829.3,5.00,000.00,022.2,021.3,000.0,030.6,023.5,10.9,0000.0,0012.39,0004.76,0004.09
2023-12-31 10:56:00,SystemResetWarning,0829.3,5.00,000.00,022.2,021.3,000.0,030.6,023.6,10.9,0000.0,0012.67,0004.77,0004.08
2023-12-31 10:57:00,SystemResetWarning,0829.3,4.99,000.00,022.2,021.3,000.0,030.5,023.5,10.9,0000.0,0012.63,0004.79,0004.09
2023-12-31 10:58:00,SystemResetWarning,0829.4,5.00,000.00,022.2,021.2,000.0,030.5,023.6,11.0,0000.0,0012.73,0004.75,0004.08
2023-12-31 10:59:00,SystemResetWarning,0829.3,4.99,000.00,022.2,021.2,000.0,030.5,023.5,11.0,0000.0,0012.73,0004.72,0004.06
